Flag for China Weather past 2 weeks in Zhengzhou, Henan, China

Now
55 °F

Partly sunny.


Feels Like: 54 °F
Forecast: 46 / 66 °F
Wind: 6 mph from Southwest

Location: Zhengzhou Airport

Current Time: Apr 2, 2015 at 4:03:02 PM

Latest Report: Apr 2, 2015 at 3:00 PM


Visibility: 3 mi

Pressure: 29.56 "Hg

Humidity: 67%

Dew point: 45 °F

Location of ZhengzhouLocation

Historic Weather in Zhengzhou — Graph

°F

Zhengzhou temperature yesterday

Maximum temperature yesterday: 48 °F (at 12:00 AM)
Minimum temperature yesterday: 39 °F (at 6:00 PM)
Average temperature yesterday: 43 °F

Past Weeks' High & Low Weather Summary

 TemperatureHumidityPressure
High79 °F (Mar 28, 1:00 PM)100% (Mar 20, 6:00 AM)30.48 "Hg (Mar 20, 6:00 AM)
Low37 °F (Mar 27, 6:00 AM)8% (Mar 21, 4:00 PM)29.56 "Hg (Apr 2, 3:00 PM)
Average55 °F66%30.10 "Hg
* Reported Mar 18 3:00 PM — Apr 2 3:00 PM, Zhengzhou, Weather by CustomWeather, © 2015

Note: Actual official high and low records may vary slightly from our data, if they occured in-between our weather recording intervals... More about our weather records

Advertising

Zhengzhou weather history for previous 24 hours

 ConditionsComfort  
Time TempWeatherWind HumidityBarometerVisibility
3:00 PM
Thu, Apr 2
55 °FPartly sunny.6 mph67%29.56 "Hg3 mi
2:00 PM52 °FPartly sunny.3 mph72%29.59 "Hg3 mi
1:00 PM50 °FPartly sunny.6 mph71%29.59 "Hg3 mi
12:00 PM48 °FPartly sunny.3 mph71%29.62 "Hg3 mi
11:00 AM45 °FMore clouds than sun.1 mph71%29.68 "Hg3 mi
10:00 AM43 °FOvercast.3 mph76%29.68 "Hg3 mi
9:00 AM41 °FFog.6 mph81%29.68 "Hg3 mi
8:00 AM41 °FFog.8 mph81%29.65 "Hg2 mi
7:00 AM39 °FFog.10 mph87%29.65 "Hg2 mi
6:00 AM39 °FFog.8 mph87%29.65 "Hg3 mi
5:00 AM39 °FFog.13 mph87%29.62 "Hg3 mi
4:00 AM39 °FLight rain. Fog.13 mph87%29.65 "Hg2 mi
3:00 AM39 °FLight rain. Fog.13 mph87%29.68 "Hg3 mi
2:00 AM39 °FLight rain. Mostly cloudy.13 mph87%29.68 "Hg4 mi
1:00 AM39 °FThunderstorms. Fog.13 mph87%29.74 "Hg2 mi
12:00 AM39 °FThunderstorms. Fog.15 mph87%29.77 "Hg2 mi
11:00 PM
Wed, Apr 1
39 °FThunderstorms. Fog.17 mph87%29.77 "Hg2 mi
10:00 PM39 °FThunderstorms. Fog.17 mph87%29.83 "Hg2 mi
9:00 PM39 °FThunderstorms. Fog.17 mph93%29.80 "Hg2 mi
8:00 PM39 °FThunderstorms. Fog.13 mph93%29.80 "Hg2 mi
7:00 PM39 °FThunderstorms. Fog.20 mph93%29.80 "Hg2 mi
6:00 PM39 °FLight rain. Fog.17 mph93%29.80 "Hg2 mi
5:00 PM41 °FLight rain. Fog.17 mph87%29.80 "Hg1 mi
4:00 PM41 °FLight rain. Fog.20 mph87%29.83 "Hg1 mi
Weather by CustomWeather, © 2015

See weather overviewHow to use our weather pages